Wetterdaten: aktuell Dienstag, 23.07.2024 20:15
Datum Zeit Temp. A. Feuchte A. Feuchte K Luftdruck Regen Wind Richtung Richtung Sonnenschein UV Solar Taupunkt Windchill Windben
23.07.2024 20:15 20,3 C 77 % 0 % 1013,6 hPa 0,0 l/m 0,1 km/h (0 Bft) W 266 0 min 0,0 UV-I 59 W/m 16,1 C 20,3 C 1,6 km/h (1 Bft)
23.07.2024 20:10 20,4 C 77 % 0 % 1013,6 hPa 0,0 l/m 0,4 km/h (0 Bft) N-NO 17 0 min 0,0 UV-I 40 W/m 16,2 C 20,4 C 6,4 km/h (2 Bft)
23.07.2024 20:05 20,5 C 77 % 0 % 1013,5 hPa 0,0 l/m 0,2 km/h (0 Bft) NW 325 0 min 0,0 UV-I 16 W/m 16,3 C 20,5 C 3,2 km/h (1 Bft)
23.07.2024 20:00 20,7 C 76 % 0 % 1013,6 hPa 0,0 l/m 1,7 km/h (1 Bft) W-NW 290 0 min 0,0 UV-I 12 W/m 16,3 C 20,7 C 11,3 km/h (2 Bft)
23.07.2024 19:55 20,9 C 76 % 0 % 1013,5 hPa 0,0 l/m 0,6 km/h (0 Bft) N-NO 31 0 min 0,0 UV-I 11 W/m 16,5 C 20,9 C 4,8 km/h (1 Bft)
23.07.2024 19:50 21,1 C 75 % 0 % 1013,3 hPa 0,0 l/m 2,0 km/h (1 Bft) W-NW 283 0 min 0,0 UV-I 19 W/m 16,5 C 21,1 C 8,0 km/h (2 Bft)
23.07.2024 19:45 21,3 C 75 % 0 % 1013,2 hPa 0,0 l/m 1,1 km/h (1 Bft) NW 311 0 min 0,0 UV-I 23 W/m 16,7 C 21,3 C 6,4 km/h (2 Bft)
23.07.2024 19:40 21,5 C 74 % 0 % 1013,1 hPa 0,0 l/m 1,9 km/h (1 Bft) SW 215 0 min 0,0 UV-I 24 W/m 16,7 C 21,5 C 9,7 km/h (2 Bft)
23.07.2024 19:35 21,7 C 76 % 0 % 1013,1 hPa 0,0 l/m 0,0 km/h (0 Bft) N-NW 327 0 min 0,0 UV-I 53 W/m 17,3 C 21,7 C 1,6 km/h (1 Bft)
23.07.2024 19:30 21,8 C 75 % 0 % 1013,0 hPa 0,0 l/m 0,8 km/h (0 Bft) W-SW 244 0 min 0,0 UV-I 74 W/m 17,2 C 21,8 C 8,0 km/h (2 Bft)
23.07.2024 19:25 22,1 C 74 % 0 % 1012,9 hPa 0,0 l/m 1,8 km/h (1 Bft) O-SO 103 0 min 0,0 UV-I 68 W/m 17,2 C 22,1 C 9,7 km/h (2 Bft)
23.07.2024 19:20 22,2 C 74 % 0 % 1012,9 hPa 0,0 l/m 1,1 km/h (1 Bft) NW 311 0 min 0,0 UV-I 90 W/m 17,3 C 22,2 C 6,4 km/h (2 Bft)
23.07.2024 19:15 22,4 C 73 % 0 % 1013,0 hPa 0,0 l/m 0,8 km/h (0 Bft) SW 229 0 min 0,0 UV-I 58 W/m 17,3 C 22,4 C 4,8 km/h (1 Bft)
23.07.2024 19:10 22,7 C 72 % 0 % 1013,0 hPa 0,0 l/m 1,0 km/h (0 Bft) W-SW 258 0 min 0,0 UV-I 51 W/m 17,4 C 22,7 C 4,8 km/h (1 Bft)
23.07.2024 19:05 22,8 C 72 % 0 % 1013,1 hPa 0,0 l/m 0,7 km/h (0 Bft) W-SW 256 0 min 0,0 UV-I 76 W/m 17,5 C 22,8 C 8,0 km/h (2 Bft)
23.07.2024 19:00 23,0 C 72 % 0 % 1013,0 hPa 0,0 l/m 0,0 km/h (0 Bft) NO 34 5 min 0,0 UV-I 102 W/m 17,7 C 23,0 C 1,6 km/h (1 Bft)
23.07.2024 18:55 23,1 C 71 % 0 % 1013,0 hPa 0,0 l/m 0,1 km/h (0 Bft) W 267 5 min 0,0 UV-I 246 W/m 17,5 C 23,1 C 3,2 km/h (1 Bft)
23.07.2024 18:50 23,2 C 70 % 0 % 1013,0 hPa 0,0 l/m 0,0 km/h (0 Bft) S-SO 150 5 min 0,0 UV-I 258 W/m 17,4 C 23,2 C 1,6 km/h (1 Bft)
23.07.2024 18:45 23,3 C 70 % 0 % 1012,8 hPa 0,0 l/m 1,8 km/h (1 Bft) W-NW 297 5 min 0,0 UV-I 269 W/m 17,5 C 23,3 C 8,0 km/h (2 Bft)
23.07.2024 18:40 23,3 C 71 % 0 % 1012,8 hPa 0,0 l/m 1,3 km/h (1 Bft) S-SW 205 5 min 0,5 UV-I 283 W/m 17,7 C 23,3 C 6,4 km/h (2 Bft)
23.07.2024 18:35 23,3 C 72 % 0 % 1012,9 hPa 0,0 l/m 0,0 km/h (0 Bft) W-SW 250 5 min 0,5 UV-I 303 W/m 18,0 C 23,3 C 1,6 km/h (1 Bft)
_ Min-Zeit 04:40 11:35 21:00 18:40 - 21:00 - - - - - 04:40 04:40 21:00
Minimum _ 14,2 C 67 % 0 % 1012,8 hPa - 0,0 km/h (0 Bft) - - - - - 12,6 C 14,2 C 0,0 km/h (0 Bft)
_ Max-Zeit 18:20 16:05 21:00 22:55 15:20 18:25 - - 09:05 11:15 11:15 17:30 18:20 18:25
Maximum _ 23,4 C 94 % 0 % 1016,4 hPa 7,1 l/m 3,3 km/h
S-SO (1 Bft)
- - 5 min 2,5 UV-I 650 W/m 19,7 C 23,4 C 16,1 km/h
N-NW (3 Bft)
Durchschnitt _ 18,7 C 82 % 0 % 1014,9 hPa #39,1 l/m 0,2 km/h (0 Bft) SW - #7:50 h 1,0 UV-I 169 W/m 15,5 C 18,7 C 1,2 km/h (1 Bft)